OK,98,39,707,98,2014-10-01T01:40:00,0,28072034,195578
OK,98,39,707,98,2014-10-01T01:45:00,0,28072477,195578
OK,73,52,707,73,2014-10-01T01:50:00,1,28072926,195578
OK,73,52,707,73,2014-10-01T01:55:00,0,28073373,195578
OK,73,52,707,73,2014-10-01T02:05:00,0,28074139,195578
OK,73,52,707,73,2014-10-01T02:10:00,0,28074588,195578
OK,73,52,707,73,2014-10-01T02:15:00,0,28075028,195578
OK,73,52,707,73,2014-10-01T02:20:00,0,28075477,195578
OK,73,52,707,73,2014-10-01T02:25:00,0,28075926,195578
OK,73,52,707,73,2014-10-01T02:30:00,0,28076309,195578
OK,73,52,707,73,2014-10-01T02:35:00,0,28076758,195578
OK,73,52,707,73,2014-10-01T02:40:00,0,28077207,195578
OK,73,52,707,73,2014-10-01T02:45:00,0,28077656,195578
OK,73,52,707,73,2014-10-01T02:50:00,0,28078059,195578
OK,75,51,707,75,2014-10-01T02:55:00,1,28078508,195578
OK,75,51,707,75,2014-10-01T03:00:00,0,28078953,195578
OK,82,47,707,82,2014-10-01T03:05:00,1,28079401,195578
OK,82,47,707,82,2014-10-01T03:10:00,0,28079844,195578
OK,82,47,707,82,2014-10-01T03:20:00,0,28080627,195578
OK,82,47,707,82,2014-10-01T03:25:00,0,28081076,195578
OK,82,47,707,82,2014-10-01T03:30:00,0,28081525,195578
OK,83,46,707,83,2014-10-01T03:35:00,0,28081972,195578
OK,66,58,707,66,2014-10-01T03:40:00,1,28082421,195578
OK,66,58,707,66,2014-10-01T03:45:00,1,28082854,195578
OK,66,58,707,66,2014-10-01T03:50:00,0,28083286,195578
OK,66,58,707,66,2014-10-01T03:55:00,0,28083735,195578
OK,112,34,707,112,2014-10-01T04:00:00,1,28084184,195578
OK,112,34,707,112,2014-10-01T04:05:00,0,28084625,195578
OK,133,29,707,133,2014-10-01T04:10:00,1,28085050,195578
OK,133,29,707,133,2014-10-01T04:15:00,0,28085499,195578
OK,133,29,707,133,2014-10-01T04:20:00,0,28085944,195578
OK,61,63,707,61,2014-10-01T04:25:00,2,28086393,195578
OK,54,71,707,54,2014-10-01T04:30:00,2,28086835,195578
OK,51,75,707,51,2014-10-01T04:35:00,1,28087284,195578
OK,51,75,707,51,2014-10-01T04:40:00,0,28087729,195578
OK,102,37,707,102,2014-10-01T04:45:00,2,28088178,195578
OK,99,39,707,99,2014-10-01T04:50:00,5,28088602,195578
OK,97,39,707,97,2014-10-01T04:55:00,6,28089051,195578
OK,89,43,707,89,2014-10-01T05:00:00,3,28089481,195578
OK,102,37,707,102,2014-10-01T05:05:00,5,28089930,195578
OK,84,46,707,84,2014-10-01T05:10:00,0,28090379,195578
OK,100,38,707,100,2014-10-01T05:15:00,4,28090723,195578
OK,86,44,707,86,2014-10-01T05:20:00,6,28091172,195578
OK,98,39,707,98,2014-10-01T05:25:00,5,28091621,195578
OK,87,44,707,87,2014-10-01T05:30:00,4,28092038,195578
OK,95,40,707,95,2014-10-01T05:35:00,5,28092487,195578
OK,94,41,707,94,2014-10-01T05:40:00,5,28092931,195578
OK,82,47,707,82,2014-10-01T05:45:00,1,28093372,195578
OK,105,36,707,105,2014-10-01T05:50:00,1,28093803,195578
OK,105,36,707,105,2014-10-01T05:55:00,0,28094252,195578
OK,105,36,707,105,2014-10-01T06:00:00,0,28094663,195578
OK,106,36,707,106,2014-10-01T06:05:00,1,28095108,195578
OK,91,42,707,91,2014-10-01T06:10:00,3,28095555,195578
OK,91,42,707,91,2014-10-01T06:15:00,5,28096004,195578
OK,92,42,707,92,2014-10-01T06:20:00,2,28096417,195578
OK,103,37,707,103,2014-10-01T06:25:00,4,28096866,195578
OK,102,37,707,102,2014-10-01T06:30:00,4,28097300,195578
OK,112,34,707,112,2014-10-01T06:35:00,1,28097749,195578
OK,109,35,707,109,2014-10-01T06:40:00,3,28098198,195578
OK,109,35,707,109,2014-10-01T06:45:00,5,28098635,195578
OK,95,40,707,95,2014-10-01T06:50:00,5,28099079,195578
OK,93,41,707,93,2014-10-01T07:00:00,4,28099870,195578
OK,90,42,707,90,2014-10-01T07:10:00,6,28100626,195578
OK,96,40,707,96,2014-10-01T07:15:00,4,28101073,195578
OK,106,36,707,106,2014-10-01T07:20:00,1,28101446,195578
OK,72,53,707,72,2014-10-01T07:25:00,2,28101895,195578
OK,72,53,707,72,2014-10-01T07:30:00,2,28102331,195578
OK,83,46,707,83,2014-10-01T07:35:00,0,28102780,195578
OK,112,34,707,112,2014-10-01T07:40:00,3,28103207,195578
OK,109,35,707,109,2014-10-01T07:45:00,3,28103654,195578
OK,95,40,707,95,2014-10-01T07:50:00,2,28104099,195578
OK,82,47,707,82,2014-10-01T07:55:00,3,28104544,195578
OK,77,50,707,77,2014-10-01T08:00:00,3,28104985,195578
OK,84,46,707,84,2014-10-01T08:05:00,2,28105430,195578
OK,91,42,707,91,2014-10-01T08:10:00,2,28105870,195578
OK,90,42,707,90,2014-10-01T08:15:00,2,28106319,195578
OK,105,36,707,105,2014-10-01T08:20:00,5,28106756,195578
OK,108,35,707,108,2014-10-01T08:25:00,1,28107162,195578
OK,108,35,707,108,2014-10-01T08:30:00,0,28107594,195578
OK,113,34,707,113,2014-10-01T08:35:00,1,28108043,195578
OK,89,43,707,89,2014-10-01T08:40:00,2,28108482,195578
OK,84,46,707,84,2014-10-01T08:45:00,3,28108931,195578
OK,75,51,707,75,2014-10-01T08:50:00,1,28109359,195578
OK,107,36,707,107,2014-10-01T09:00:00,0,28110151,195578
OK,98,39,707,98,2014-10-01T09:05:00,4,28110600,195578
OK,98,39,707,98,2014-10-01T09:10:00,4,28111023,195578
OK,96,40,707,96,2014-10-01T09:15:00,1,28111472,195578
OK,96,40,707,96,2014-10-01T09:20:00,1,28111901,195578
OK,91,42,707,91,2014-10-01T09:30:00,1,28112691,195578
OK,99,39,707,99,2014-10-01T09:35:00,2,28113140,195578
OK,115,33,707,115,2014-10-01T09:40:00,3,28113564,195578
OK,121,31,707,121,2014-10-01T09:45:00,1,28114013,195578
OK,121,31,707,121,2014-10-01T09:50:00,0,28114445,195578
OK,80,48,707,80,2014-10-01T10:00:00,2,28115248,195578
OK,102,37,707,102,2014-10-01T10:05:00,2,28115697,195578
OK,107,36,707,107,2014-10-01T10:10:00,2,28116109,195578
OK,97,39,707,97,2014-10-01T10:15:00,1,28116558,195578
OK,97,39,707,97,2014-10-01T10:20:00,0,28116966,195578
OK,85,45,707,85,2014-10-01T10:25:00,1,28117415,195578
OK,85,45,707,85,2014-10-01T10:30:00,1,28117840,195578
OK,90,42,707,90,2014-10-01T10:35:00,3,28118289,195578
OK,92,42,707,92,2014-10-01T10:40:00,2,28118734,195578
OK,119,32,707,119,2014-10-01T10:45:00,1,28119181,195578
OK,101,38,707,101,2014-10-01T10:50:00,2,28119625,195578
OK,84,46,707,84,2014-10-01T10:55:00,1,28120073,195578
OK,115,33,707,115,2014-10-01T11:00:00,2,28120521,195578
OK,89,43,707,89,2014-10-01T11:05:00,3,28120970,195578
OK,89,43,707,89,2014-10-01T11:10:00,2,28121353,195578
OK,101,38,707,101,2014-10-01T11:15:00,2,28121802,195578
OK,95,40,707,95,2014-10-01T11:20:00,4,28122240,195578
OK,92,42,707,92,2014-10-01T11:25:00,4,28122689,195578
OK,94,41,707,94,2014-10-01T11:30:00,2,28123130,195578
OK,85,45,707,85,2014-10-01T11:35:00,1,28123579,195578
OK,77,50,707,77,2014-10-01T11:40:00,2,28124011,195578
OK,70,55,707,70,2014-10-01T11:45:00,1,28124460,195578
OK,105,36,707,105,2014-10-01T11:50:00,1,28124862,195578
OK,105,36,707,105,2014-10-01T11:55:00,1,28125311,195578
OK,103,37,707,103,2014-10-01T12:00:00,3,28125740,195578
OK,109,35,707,109,2014-10-01T12:10:00,3,28126541,195578
OK,102,37,707,102,2014-10-01T12:15:00,7,28126990,195578
OK,96,40,707,96,2014-10-01T12:20:00,6,28127439,195578
OK,90,42,707,90,2014-10-01T12:25:00,3,28127888,195578
OK,114,33,707,114,2014-10-01T12:30:00,3,28128316,195578
OK,107,36,707,107,2014-10-01T12:35:00,4,28128765,195578
OK,95,40,707,95,2014-10-01T12:40:00,3,28129200,195578
OK,89,43,707,89,2014-10-01T12:45:00,4,28129649,195578
OK,105,36,707,105,2014-10-01T12:50:00,4,28130083,195578
OK,113,34,707,113,2014-10-01T12:55:00,3,28130532,195578
OK,172,22,707,172,2014-10-01T13:00:00,2,28130960,195578
OK,162,23,707,162,2014-10-01T13:05:00,2,28131409,195578
OK,104,37,707,104,2014-10-01T13:10:00,4,28131846,195578
OK,125,30,707,125,2014-10-01T13:15:00,2,28132295,195578
OK,119,32,707,119,2014-10-01T13:20:00,1,28132733,195578
OK,109,35,707,109,2014-10-01T13:25:00,2,28133180,195578
OK,91,42,707,91,2014-10-01T13:30:00,3,28133618,195578
OK,83,46,707,83,2014-10-01T13:35:00,4,28134067,195578
OK,78,49,707,78,2014-10-01T13:40:00,3,28134506,195578
OK,110,35,707,110,2014-10-01T13:45:00,3,28134955,195578
OK,107,36,707,107,2014-10-01T13:50:00,4,28135374,195578
OK,116,33,707,116,2014-10-01T13:55:00,3,28135823,195578
OK,109,35,707,109,2014-10-01T14:00:00,4,28136260,195578
OK,116,33,707,116,2014-10-01T14:05:00,4,28136709,195578
OK,126,30,707,126,2014-10-01T14:10:00,4,28137149,195578
OK,99,39,707,99,2014-10-01T14:15:00,3,28137598,195578
OK,105,36,707,105,2014-10-01T14:20:00,2,28138032,195578
OK,123,31,707,123,2014-10-01T14:25:00,2,28138481,195578
OK,126,30,707,126,2014-10-01T14:30:00,3,28138909,195578
OK,119,32,707,119,2014-10-01T14:35:00,8,28139358,195578
OK,94,41,707,94,2014-10-01T14:40:00,3,28139769,195578
OK,119,32,707,119,2014-10-01T14:45:00,2,28140218,195578
OK,119,32,707,119,2014-10-01T14:50:00,2,28140660,195578
OK,102,37,707,102,2014-10-01T14:55:00,1,28141108,195578
OK,102,37,707,102,2014-10-01T15:00:00,0,28141535,195578
OK,101,38,707,101,2014-10-01T15:05:00,1,28141984,195578
OK,113,34,707,113,2014-10-01T15:10:00,2,28142412,195578
OK,111,34,707,111,2014-10-01T15:15:00,2,28142861,195578
OK,97,39,707,97,2014-10-01T15:20:00,2,28143288,195578
OK,104,37,707,104,2014-10-01T15:25:00,2,28143737,195578
OK,104,37,707,104,2014-10-01T15:30:00,2,28144185,195578
OK,81,47,707,81,2014-10-01T15:35:00,1,28144634,195578
OK,81,47,707,81,2014-10-01T15:40:00,0,28145055,195578
OK,81,47,707,81,2014-10-01T15:45:00,0,28145469,195578
OK,81,47,707,81,2014-10-01T15:50:00,0,28145918,195578
OK,81,47,707,81,2014-10-01T15:55:00,0,28146367,195578
OK,81,47,707,81,2014-10-01T16:00:00,0,28146816,195578
OK,91,42,707,91,2014-10-01T16:05:00,1,28147224,195578
OK,91,42,707,91,2014-10-01T16:10:00,1,28147668,195578
OK,109,35,707,109,2014-10-01T16:15:00,2,28148117,195578
OK,116,33,707,116,2014-10-01T16:20:00,1,28148518,195578
OK,116,33,707,116,2014-10-01T16:25:00,0,28148967,195578
OK,124,31,707,124,2014-10-01T16:30:00,1,28149406,195578
OK,101,38,707,101,2014-10-01T16:35:00,2,28149855,195578
OK,86,44,707,86,2014-10-01T16:40:00,1,28150281,195578
OK,86,44,707,86,2014-10-01T16:45:00,1,28150730,195578
OK,85,45,707,85,2014-10-01T16:50:00,1,28151148,195578
OK,85,45,707,85,2014-10-01T16:55:00,1,28151597,195578
OK,94,41,707,94,2014-10-01T17:05:00,1,28152046,195578
OK,94,41,707,94,2014-10-01T17:10:00,0,28152495,195578
OK,80,48,707,80,2014-10-01T17:15:00,1,28152941,195578
OK,72,53,707,72,2014-10-01T17:20:00,2,28153388,195578
OK,65,59,707,65,2014-10-01T17:25:00,1,28153837,195578
OK,65,59,707,65,2014-10-01T17:30:00,0,28154247,195578
OK,88,43,707,88,2014-10-01T17:35:00,1,28154696,195578
OK,90,42,707,90,2014-10-01T17:40:00,2,28155138,195578
OK,93,41,707,93,2014-10-01T17:45:00,1,28155586,195578
OK,93,41,707,93,2014-10-01T17:50:00,0,28156004,195578
OK,82,47,707,82,2014-10-01T17:55:00,1,28156453,195578
OK,106,36,707,106,2014-10-01T18:00:00,3,28156901,195578
OK,106,36,707,106,2014-10-01T18:05:00,3,28157340,195578
OK,96,40,707,96,2014-10-01T18:10:00,4,28157770,195578
OK,87,44,707,87,2014-10-01T18:15:00,5,28158218,195578
OK,128,30,707,128,2014-10-01T18:20:00,1,28158662,195578
OK,90,42,707,90,2014-10-01T18:25:00,1,28159107,195578
OK,90,42,707,90,2014-10-01T18:35:00,0,28159889,195578
OK,90,42,707,90,2014-10-01T18:40:00,0,28160338,195578
OK,120,32,707,120,2014-10-01T18:45:00,1,28160787,195578
OK,120,32,707,120,2014-10-01T18:50:00,1,28161225,195578
OK,120,32,707,120,2014-10-01T18:55:00,0,28161674,195578
OK,120,32,707,120,2014-10-01T19:00:00,0,28162091,195578
OK,120,32,707,120,2014-10-01T19:05:00,0,28162540,195578
OK,120,32,707,120,2014-10-01T19:10:00,0,28162934,195578
OK,115,33,707,115,2014-10-01T19:15:00,1,28163373,195578
OK,115,33,707,115,2014-10-01T19:20:00,1,28163821,195578
OK,100,38,707,100,2014-10-01T19:25:00,2,28164270,195578
OK,100,38,707,100,2014-10-01T19:30:00,2,28164701,195578
OK,100,38,707,100,2014-10-01T19:35:00,0,28165150,195578
OK,100,38,707,100,2014-10-01T19:40:00,0,28165575,195578
OK,102,37,707,102,2014-10-01T19:45:00,1,28166023,195578
OK,84,46,707,84,2014-10-01T19:55:00,2,28166826,195578
OK,64,60,707,64,2014-10-01T20:00:00,1,28167275,195578
OK,111,34,707,111,2014-10-01T20:05:00,2,28167703,195578
OK,111,34,707,111,2014-10-01T20:10:00,2,28168137,195578
OK,111,34,707,111,2014-10-01T20:15:00,0,28168586,195578
OK,94,41,707,94,2014-10-01T20:20:00,2,28169031,195578
OK,113,34,707,113,2014-10-01T20:25:00,1,28169480,195578
OK,113,34,707,113,2014-10-01T20:30:00,0,28169928,195578
OK,113,34,707,113,2014-10-01T20:35:00,0,28170354,195578
OK,113,34,707,113,2014-10-01T20:40:00,0,28170799,195578
OK,113,34,707,113,2014-10-01T20:45:00,0,28171247,195578
OK,113,34,707,113,2014-10-01T20:50:00,0,28171684,195578
OK,113,34,707,113,2014-10-01T20:55:00,0,28172130,195578
OK,113,34,707,113,2014-10-01T21:00:00,0,28172578,195578
OK,113,34,707,113,2014-10-01T21:05:00,0,28173024,195578
OK,113,34,707,113,2014-10-01T21:10:00,0,28173470,195578
OK,139,27,707,139,2014-10-01T21:20:00,1,28174360,195578
OK,139,27,707,139,2014-10-01T21:25:00,0,28174809,195578
OK,139,27,707,139,2014-10-01T21:35:00,0,28175631,195578
OK,139,27,707,139,2014-10-01T21:40:00,0,28176080,195578
OK,139,27,707,139,2014-10-01T21:45:00,0,28176529,195578
OK,139,27,707,139,2014-10-01T21:50:00,0,28176978,195578
OK,139,27,707,139,2014-10-01T21:55:00,0,28177334,195578
OK,139,27,707,139,2014-10-01T22:00:00,0,28177774,195578
OK,139,27,707,139,2014-10-01T22:05:00,0,28178220,195578
OK,139,27,707,139,2014-10-01T22:10:00,0,28178669,195578
OK,139,27,707,139,2014-10-01T22:15:00,0,28179116,195578
OK,139,27,707,139,2014-10-01T22:20:00,0,28179550,195578
OK,139,27,707,139,2014-10-01T22:25:00,0,28179993,195578
OK,139,27,707,139,2014-10-01T22:35:00,0,28180838,195578
OK,139,27,707,139,2014-10-01T22:40:00,0,28181711,195578
OK,139,27,707,139,2014-10-01T22:50:00,0,28182159,195578
OK,139,27,707,139,2014-10-01T22:55:00,0,28182606,195578
OK,139,27,707,139,2014-10-01T23:00:00,0,28183467,195578
OK,139,27,707,139,2014-10-01T23:05:00,0,28183905,195578
OK,96,40,707,96,2014-10-01T23:15:00,2,28184350,195578
OK,102,37,707,102,2014-10-01T23:20:00,2,28185234,195578
OK,102,37,707,102,2014-10-01T23:25:00,0,28185678,195578
OK,102,37,707,102,2014-10-01T23:30:00,0,28186061,195578
OK,102,37,707,102,2014-10-01T23:35:00,0,28186505,195578
OK,102,37,707,102,2014-10-01T23:40:00,0,28186913,195578
OK,102,37,707,102,2014-10-01T23:45:00,0,28187345,195578
OK,102,37,707,102,2014-10-01T23:50:00,0,28187794,195578
OK,102,37,707,102,2014-10-01T23:55:00,0,28188236,195578
OK,102,37,707,102,2014-10-02T00:00:00,0,28188672,195578
OK,102,37,707,102,2014-10-02T00:10:00,0,28189120,195578
OK,102,37,707,102,2014-10-02T00:15:00,0,28189569,195578
OK,102,37,707,102,2014-10-02T00:20:00,0,28189991,195578
OK,102,37,707,102,2014-10-02T00:30:00,0,28190793,195578
OK,102,37,707,102,2014-10-02T00:35:00,0,28191242,195578
OK,102,37,707,102,2014-10-02T00:45:00,0,28191997,195578
OK,102,37,707,102,2014-10-02T00:50:00,0,28192446,195578
OK,102,37,707,102,2014-10-02T00:55:00,0,28192879,195578
OK,102,37,707,102,2014-10-02T01:05:00,0,28193690,195578
OK,102,37,707,102,2014-10-02T01:10:00,0,28194139,195578
OK,102,37,707,102,2014-10-02T01:15:00,0,28194588,195578
OK,102,37,707,102,2014-10-02T01:25:00,0,28195273,195578
OK,102,37,707,102,2014-10-02T01:30:00,0,28195722,195578
OK,102,37,707,102,2014-10-02T01:35:00,0,28196171,195578
OK,102,37,707,102,2014-10-02T01:40:00,0,28196455,195578
OK,102,37,707,102,2014-10-02T01:45:00,0,28196904,195578
OK,102,37,707,102,2014-10-02T01:50:00,0,28197327,195578
OK,102,37,707,102,2014-10-02T01:55:00,0,28197776,195578
OK,102,37,707,102,2014-10-02T02:00:00,0,28198224,195578
OK,102,37,707,102,2014-10-02T02:05:00,0,28198672,195578
OK,102,37,707,102,2014-10-02T02:10:00,0,28199121,195578
OK,102,37,707,102,2014-10-02T02:15:00,0,28199493,195578
OK,102,37,707,102,2014-10-02T02:20:00,0,28199935,195578
OK,102,37,707,102,2014-10-02T02:25:00,0,28200377,195578
OK,102,37,707,102,2014-10-02T02:30:00,0,28200820,195578
OK,102,37,707,102,2014-10-02T02:35:00,0,28201269,195578
OK,102,37,707,102,2014-10-02T02:45:00,0,28201700,195578
OK,102,37,707,102,2014-10-02T02:50:00,0,28202149,195578
OK,102,37,707,102,2014-10-02T02:55:00,0,28202598,195578
OK,102,37,707,102,2014-10-02T03:00:00,0,28203040,195578
OK,102,37,707,102,2014-10-02T03:05:00,0,28203488,195578
OK,102,37,707,102,2014-10-02T03:10:00,0,28203923,195578
OK,102,37,707,102,2014-10-02T03:30:00,0,28204372,195578
OK,102,37,707,102,2014-10-02T03:35:00,0,28204821,195578
OK,102,37,707,102,2014-10-02T03:40:00,0,28205270,195578
OK,78,49,707,78,2014-10-02T03:45:00,0,28205698,195578
OK,78,49,707,78,2014-10-02T03:50:00,0,28206125,195578
OK,78,49,707,78,2014-10-02T03:55:00,0,28206528,195578
OK,78,49,707,78,2014-10-02T04:00:00,0,28206977,195578
OK,78,49,707,78,2014-10-02T04:05:00,0,28207426,195578
OK,78,49,707,78,2014-10-02T04:10:00,0,28207845,195578
OK,78,49,707,78,2014-10-02T04:15:00,0,28208294,195578
OK,78,49,707,78,2014-10-02T04:20:00,0,28208721,195578
OK,78,49,707,78,2014-10-02T04:25:00,0,28209170,195578
OK,89,43,707,89,2014-10-02T04:30:00,1,28209608,195578
OK,89,43,707,89,2014-10-02T04:35:00,1,28210057,195578
OK,80,48,707,80,2014-10-02T04:40:00,2,28210480,195578
OK,72,53,707,72,2014-10-02T04:45:00,0,28210929,195578
OK,72,53,707,72,2014-10-02T04:50:00,0,28211354,195578
OK,72,53,707,72,2014-10-02T05:00:00,0,28212176,195578
OK,88,43,707,88,2014-10-02T05:05:00,6,28212625,195578
OK,98,39,707,98,2014-10-02T05:10:00,2,28213054,195578
OK,143,27,707,143,2014-10-02T05:15:00,1,28213503,195578
OK,143,27,707,143,2014-10-02T05:20:00,0,28213941,195578
OK,69,56,707,69,2014-10-02T05:25:00,2,28214390,195578
OK,83,46,707,83,2014-10-02T05:30:00,0,28214803,195578
OK,83,46,707,83,2014-10-02T05:35:00,0,28215252,195578
OK,161,24,707,161,2014-10-02T05:40:00,1,28215668,195578
OK,161,24,707,161,2014-10-02T05:45:00,0,28216117,195578
OK,161,24,707,161,2014-10-02T05:50:00,0,28216456,195578
OK,117,33,707,117,2014-10-02T05:55:00,4,28216896,195578
OK,114,33,707,114,2014-10-02T06:00:00,6,28217343,195578
OK,114,33,707,114,2014-10-02T06:05:00,4,28217792,195578
OK,135,28,707,135,2014-10-02T06:10:00,1,28218231,195578
OK,125,30,707,125,2014-10-02T06:15:00,5,28218680,195578
OK,126,30,707,126,2014-10-02T06:20:00,4,28219100,195578
OK,89,43,707,89,2014-10-02T06:30:00,5,28219922,195578
OK,86,44,707,86,2014-10-02T06:35:00,8,28220371,195578
OK,85,45,707,85,2014-10-02T06:40:00,5,28220805,195578
OK,146,26,707,146,2014-10-02T06:45:00,2,28221254,195578
OK,112,34,707,112,2014-10-02T07:00:00,2,28221921,195578
OK,80,48,707,80,2014-10-02T07:05:00,4,28222066,195578
OK,78,49,707,78,2014-10-02T07:10:00,7,28222515,195578
OK,77,50,707,77,2014-10-02T07:15:00,2,28222964,195578
OK,78,49,707,78,2014-10-02T07:20:00,0,28223395,195578
OK,96,40,707,96,2014-10-02T07:25:00,0,28223830,195578
OK,96,40,707,96,2014-10-02T07:35:00,0,28224633,195578
OK,96,40,707,96,2014-10-02T07:40:00,0,28225082,195578
OK,79,48,707,79,2014-10-02T07:50:00,1,28225853,195578
OK,147,26,707,147,2014-10-02T07:55:00,2,28226302,195578
OK,151,25,707,151,2014-10-02T08:00:00,1,28226743,195578
OK,112,34,707,112,2014-10-02T08:05:00,0,28227192,195578
OK,112,34,707,112,2014-10-02T08:10:00,0,28227607,195578
OK,64,60,707,64,2014-10-02T08:20:00,0,28228415,195578
OK,64,60,707,64,2014-10-02T08:25:00,0,28228864,195578
OK,64,60,707,64,2014-10-02T08:30:00,0,28229274,195578
OK,82,47,707,82,2014-10-02T08:40:00,1,28230073,195578
OK,82,47,707,82,2014-10-02T08:45:00,0,28230522,195578
OK,112,34,707,112,2014-10-02T08:50:00,1,28230888,195578
OK,112,34,707,112,2014-10-02T08:55:00,1,28231335,195578
OK,90,42,707,90,2014-10-02T09:00:00,5,28231760,195578
OK,76,50,707,76,2014-10-02T09:15:00,1,28232551,195578
OK,76,50,707,76,2014-10-02T09:20:00,1,28233000,195578
OK,98,39,707,98,2014-10-02T09:25:00,0,28233449,195578
OK,98,39,707,98,2014-10-02T09:30:00,0,28233873,195578
OK,116,33,707,116,2014-10-02T09:40:00,0,28234655,195578
OK,87,44,707,87,2014-10-02T09:45:00,4,28235104,195578
OK,77,50,707,77,2014-10-02T09:50:00,2,28235531,195578
OK,81,47,707,81,2014-10-02T09:55:00,3,28235980,195578
OK,92,42,707,92,2014-10-02T10:00:00,1,28236423,195578
OK,92,42,707,92,2014-10-02T10:05:00,0,28236870,195578
OK,103,37,707,103,2014-10-02T10:10:00,4,28237272,195578
OK,125,30,707,125,2014-10-02T10:15:00,2,28237720,195578
OK,121,31,707,121,2014-10-02T10:20:00,5,28238169,195578
OK,120,32,707,120,2014-10-02T10:25:00,4,28238616,195578
OK,139,27,707,139,2014-10-02T10:30:00,0,28239057,195578
OK,107,36,707,107,2014-10-02T10:35:00,7,28239506,195578
OK,79,48,707,79,2014-10-02T10:40:00,4,28239936,195578
OK,71,54,707,71,2014-10-02T10:45:00,5,28240385,195578
OK,109,35,707,109,2014-10-02T10:50:00,1,28240829,195578
OK,85,45,707,85,2014-10-02T10:55:00,2,28241278,195578
OK,81,47,707,81,2014-10-02T11:00:00,0,28241710,195578
OK,81,47,707,81,2014-10-02T11:05:00,0,28242158,195578
OK,105,36,707,105,2014-10-02T11:10:00,4,28242554,195578
OK,113,34,707,113,2014-10-02T11:15:00,4,28243003,195578
OK,110,35,707,110,2014-10-02T11:20:00,3,28243452,195578
OK,110,35,707,110,2014-10-02T11:25:00,1,28243777,195578
OK,110,35,707,110,2014-10-02T11:30:00,0,28244215,195578
OK,113,34,707,113,2014-10-02T11:35:00,1,28244644,195578
OK,113,34,707,113,2014-10-02T11:40:00,0,28245093,195578
OK,113,34,707,113,2014-10-02T11:45:00,0,28245542,195578
OK,94,41,707,94,2014-10-02T11:50:00,4,28245948,195578
OK,121,31,707,121,2014-10-02T11:55:00,3,28246397,195578
OK,119,32,707,119,2014-10-02T12:00:00,3,28246834,195578
OK,110,35,707,110,2014-10-02T12:05:00,2,28247282,195578
OK,102,37,707,102,2014-10-02T12:10:00,0,28247729,195578
OK,128,30,707,128,2014-10-02T12:15:00,5,28248159,195578
OK,128,30,707,128,2014-10-02T12:20:00,3,28248608,195578
OK,109,35,707,109,2014-10-02T12:25:00,2,28249055,195578
OK,125,30,707,125,2014-10-02T12:30:00,1,28249483,195578
OK,111,34,707,111,2014-10-02T12:35:00,1,28249927,195578
OK,111,34,707,111,2014-10-02T12:40:00,1,28250311,195578
OK,102,37,707,102,2014-10-02T12:45:00,4,28251077,195578
OK,161,24,707,161,2014-10-02T13:20:00,8,28251604,195578
OK,138,28,707,138,2014-10-02T13:30:00,6,28252069,195578
OK,149,25,707,149,2014-10-02T13:35:00,3,28252206,195578
OK,164,23,707,164,2014-10-02T13:40:00,0,28252653,195578
OK,106,36,707,106,2014-10-02T13:50:00,3,28253512,195578
OK,149,25,707,149,2014-10-02T13:55:00,4,28253961,195578
OK,108,35,707,108,2014-10-02T14:10:00,4,28254692,195578
OK,92,42,707,92,2014-10-02T14:15:00,7,28254815,195578
OK,115,33,707,115,2014-10-02T14:20:00,5,28255264,195578
OK,113,34,707,113,2014-10-02T14:25:00,2,28255713,195578
OK,154,25,707,154,2014-10-02T14:30:00,1,28256141,195578
OK,154,25,707,154,2014-10-02T14:35:00,0,28256590,195578
OK,100,38,707,100,2014-10-02T14:40:00,2,28257018,195578
OK,108,35,707,108,2014-10-02T14:45:00,7,28257467,195578
OK,119,32,707,119,2014-10-02T14:50:00,5,28257908,195578
OK,119,32,707,119,2014-10-02T14:55:00,3,28258356,195578
OK,119,32,707,119,2014-10-02T15:00:00,0,28258789,195578
OK,72,53,707,72,2014-10-02T15:05:00,1,28259235,195578
OK,90,42,707,90,2014-10-02T15:10:00,2,28259683,195578
OK,98,39,707,98,2014-10-02T15:15:00,2,28260131,195578
OK,98,39,707,98,2014-10-02T15:20:00,2,28260564,195578
OK,121,31,707,121,2014-10-02T15:25:00,3,28261011,195578
OK,103,37,707,103,2014-10-02T15:35:00,1,28261816,195578
OK,103,37,707,103,2014-10-02T15:40:00,0,28262265,195578
OK,145,26,707,145,2014-10-02T15:45:00,1,28262712,195578
OK,145,26,707,145,2014-10-02T15:50:00,1,28263158,195578
OK,145,26,707,145,2014-10-02T15:55:00,0,28263596,195578
OK,92,42,707,92,2014-10-02T16:05:00,1,28264439,195578
OK,92,42,707,92,2014-10-02T16:10:00,0,28264888,195578
OK,92,42,707,92,2014-10-02T16:15:00,0,28265326,195578
OK,77,50,707,77,2014-10-02T16:25:00,2,28266162,195578
OK,96,40,707,96,2014-10-02T16:30:00,3,28266611,195578
OK,92,42,707,92,2014-10-02T16:35:00,2,28267383,195578
OK,120,32,707,120,2014-10-02T16:45:00,0,28267832,195578
OK,120,32,707,120,2014-10-02T16:50:00,0,28268281,195578
OK,80,48,707,80,2014-10-02T16:55:00,1,28268723,195578
OK,80,48,707,80,2014-10-02T17:00:00,0,28269172,195578
OK,127,30,707,127,2014-10-02T17:05:00,1,28269621,195578
OK,127,30,707,127,2014-10-02T17:10:00,1,28270056,195578
OK,127,30,707,127,2014-10-02T17:15:00,0,28270505,195578
OK,127,30,707,127,2014-10-02T17:20:00,0,28270939,195578